Regional Weather Roundup
Issued by NWS Cleveland, OH

Home | Current Version | Previous Version | Text Only | Print | Product List | Glossary Off
Versions: 1 2 3 4 5 6 7 8 9 10 11 12 13 14 15 16 17 18 19 20 21 22 23 24 25 26 27 28 29 30 31 32 33 34 35 36 37 38 39 40 41 42 43 44 45 46 47 48 49 50

000
ASUS41 KCLE 240602
RWRCLE
OHIO REGIONAL WEATHER ROUNDUP
NATIONAL WEATHER SERVICE CLEVELAND, OH
200 AM EDT FRI OCT 24 2014

NOTE: "FAIR" INDICATES FEW OR NO CLOUDS BELOW 12,000 FEET WITH NO
SIGNIFICANT WEATHER AND/OR OBSTRUCTIONS TO VISIBILITY.

OHZ001>008-015>018-024>027-034-035-043-044-240700-
   NORTHWEST OHIO

CITY           SKY/WX    TMP DP  RH WIND       PRES   REMARKS
DEFIANCE       PTCLDY    37  35  92 CALM      30.10F FOG
FINDLAY        MOCLDY    39  36  89 CALM      30.10S
TOLEDO EXPRESS MOCLDY    37  36  96 CALM      30.10S
TOLEDO EXEC    PTCLDY    39  35  86 CALM      30.11S
LIMA           MOCLDY    42  38  85 SW5       30.11S
$$

OHZ009>014-019>023-028>033-038-089-240700-
   NORTHEAST OHIO

CITY           SKY/WX    TMP DP  RH WIND       PRES   REMARKS
CLE-HOPKINS    MOCLDY    38  35  89 SW5       30.13S
CLE-LAKEFRONT  CLEAR     44  38  79 SE6       30.09F
CUY CO. ARPT   NOT AVBL
LORAIN-ELYRIA  PTCLDY    36  34  92 SW5       30.11S
ASHTABULA      FOG       38  38 100 CALM      30.08F VSB 1/2
AKRON-CANTON   CLEAR     40  37  89 W5        30.10S FOG
WOOSTER        CLEAR     35  32  88 CALM      30.11S FOG
MANSFIELD      CLEAR     38  37  97 S5        30.11S
YOUNGSTOWN     CLEAR     42  40  92 W6        30.08R
$$

OHZ042-051>053-060>062-070>072-077>081-240700-
  SOUTHWEST OHIO

CITY           SKY/WX    TMP DP  RH WIND       PRES   REMARKS
CINC-COVINGTON CLOUDY    46  41  82 CALM      30.11S
CINC-LUNKEN    CLOUDY    42  41  96 CALM      30.14R
HAMILTON       CLOUDY    41  40  96 CALM      30.13R
DAYTON         CLOUDY    46  39  76 W6        30.12S
WRIGHT-PAT AFB MOCLDY    42  40  90 CALM      30.11F
DAYTON GENERAL CLOUDY    48  40  73 CALM      30.10S
WILMINGTON     CLOUDY    40  37  89 CALM      30.11F
$$

OHZ036-037-039>041-045>050-054>059-063>069-073>076-082>088-240700-
  CENTRAL AND SOUTHEAST OHIO

CITY           SKY/WX    TMP DP  RH WIND       PRES   REMARKS
COLUMBUS       MOCLDY    40  37  89 CALM      30.11S
OSU AIRPORT    MOCLDY    39  37  92 CALM      30.11S FOG
BOLTON FIELD   PTCLDY    38  38  99 CALM      30.12S FOG
RICKENBACK AFB NOT AVBL
NEWARK         FOG       35  33  92 CALM      30.12S VSB 3/4
MARION         PTCLDY    36  34  92 CALM      30.11S FOG
LANCASTER      PTCLDY    36  35  96 CALM      30.12R
ZANESVILLE     PTCLDY    37  35  92 CALM      30.11S
NEW PHILLY     MOCLDY    38  36  92 CALM      30.12R
$$



USA.gov is the U.S. government's official web portal to all federal, state and local government web resources and services.